Regional Weather Roundup
Issued by NWS Charleston, WV

Home | Current Version | Previous Version | Text Only | Print | Product List | Glossary Off
Versions: 1 2 3 4 5 6 7 8 9 10 11 12 13 14 15 16 17 18 19 20 21 22 23 24 25 26 27 28 29 30 31 32 33 34 35 36 37 38 39 40 41 42 43 44 45 46 47 48 49 50

000
ASUS41 KRLX 230210
RWRRLX
West Virginia Regional Weather Roundup
National Weather Service Charleston WV
900 PM EST MON DEC 22 2014

Note: "fair" indicates few or no clouds below 12,000 feet with no
significant weather and/or obstructions to visibility.

WVZ003-230300-
Northern Panhandle of West Virginia

CITY           SKY/WX    TMP DP  RH WIND       PRES   REMARKS
WHEELING       CLOUDY    40  32  73 E15       29.91S
$$

WVZ009-230300-
Northwest West Virginia

CITY           SKY/WX    TMP DP  RH WIND       PRES   REMARKS
PARKERSBURG    CLOUDY    49  38  65 E3        29.90F
$$

WVZ006-230300-
Western West Virginia

CITY           SKY/WX    TMP DP  RH WIND       PRES   REMARKS
HUNTINGTON     CLOUDY    50  40  68 E6        29.83F
$$

WVZ015-230300-
West Central West Virginia

CITY           SKY/WX    TMP DP  RH WIND       PRES   REMARKS
CHARLESTON     CLOUDY    48  38  68 VRB3      29.88S
$$

WVZ022-031-230300-
North Central West Virginia

CITY           SKY/WX    TMP DP  RH WIND       PRES   REMARKS
CLARKSBURG     MOCLDY    41  36  82 E7        29.91F
MORGANTOWN     PTCLDY    41  30  65 CALM      29.94F
$$

WVZ025-035-042-045-230300-
Southern West Virginia

CITY           SKY/WX    TMP DP  RH WIND       PRES   REMARKS
BECKLEY        CLOUDY    37  33  85 SE13G23   29.93S
LOGAN          CLOUDY    46  37  71 VRB6      29.88S
BLUEFIELD      CLOUDY    36  33  89 SE15G31   29.95S FOG
LEWISBURG      CLOUDY    37  35  92 NE5       30.02S
$$

WVZ047-230300-
Northern Mountains of West Virginia

CITY           SKY/WX    TMP DP  RH WIND       PRES   REMARKS
ELKINS         PTCLDY    43  38  82 SE5       29.94F
$$

WVZ052-230300-
Eastern Panhandle of West Virginia

CITY           SKY/WX    TMP DP  RH WIND       PRES   REMARKS
MARTINSBURG    CLOUDY    33  29  85 N5        30.15F FOG
PETERSBURG     CLOUDY    32  32 100 CALM      30.13S FOG
$$


USA.gov is the U.S. government's official web portal to all federal, state and local government web resources and services.